User: anonymous   Login
Location: Vancouver
(49.2500°N, 123.1330°W)
Time: 22:17:05
(UTC-07:00)
Language:

Vanguard 2 Rocket - Orbit

View from above orbital plane
View from above orbital plane
View from above satellite
View from above satellite

Ground track
Ground track

The orbit data is extracted from the following two-line orbital elements,

1    12U 59001B   17229.83669656 -.00000129 +00000-0 -70914-4 0  9997
2    12 032.9015 010.4062 1667605 037.0343 333.4449 11.44143180161442
Epoch (UTC): 17 August 2017 20:04:50
Eccentricity: 0.1667605
inclination: 32.9015°
perigee height: 554 km
apogee height: 3328 km
right ascension of ascending node: 10.4062°
argument of perigee: 37.0343°
revolutions per day: 11.44143180
mean anomaly at epoch: 333.4449°
orbit number at epoch: 16144

The dashed part of the orbit path shows where the satellite is in the earth's shadow,  

DLR